Eureka, NV

2:45 AM PDT on September 24, 2017 (GMT -0700)
Eureka

Weather History for KP68 - September, 2012

Change the Weather History Date:

Saturday, September 15, 2012

  Actual Average Record
Temperature  
Mean Temperature 65 °F 58 °F  
Max Temperature 85 °F 78 °F 90 °F (2000)
Min Temperature 45 °F 39 °F 21 °F (1970)
Degree Days  
Heating Degree Days 0 7  
Month to date heating degree days 17 70  
Since 1 July heating degree days 17 117  
Cooling Degree Days 0 0  
Month to date cooling degree days 20 9  
Year to date cooling degree days 528 286  
Growing Degree Days 15 (Base 50)    
Moisture  
Dew Point 25 °F    
Average Humidity 28    
Maximum Humidity 45    
Minimum Humidity 10    
Precipitation  
Precipitation 0.00 in 0.02 in 0.88 in (2015)
Month to date precipitation 0.36 0.29  
Year to date precipitation 5.02 6.58  
Sea Level Pressure  
Sea Level Pressure 30.08 in    
Wind  
Wind Speed 7 mph (SW)    
Max Wind Speed 16 mph    
Max Gust Speed 24 mph    
T = Trace of Precipitation, MM = Missing Value Source: NWS Daily Summary

Daily Weather History Graph

Daily Weather History Graph

Search for Another Location

Airport or City:

Trip Planner

Search our weather history database for the weather conditions in past years. The results will help you decide how hot, cold, wet, or windy it might be!

Date:

Astronomy

Sep. 15, 2012 Rise Set
Actual Time 6:25 AM PDT 6:51 PM PDT
Civil Twilight 5:58 AM PDT 7:18 PM PDT
Nautical Twilight 5:26 AM PDT 7:50 PM PDT
Astronomical Twilight 4:54 AM PDT 8:22 PM PDT
Moon 6:01 AM PDT (9/15) 6:24 PM PDT (9/15)
Length of Visible Light 13h 19m
Length of Day
12h 25m
Waning Crescent, 0% of the Moon is Illuminated
Sep 15
Waning Crescent
Sep 15
New
Sep 22
First Quarter
Sep 29
Full
Oct 8
Last Quarter

Hourly Weather History & Observations

Time (PDT) Temp. Dew Point Humidity Pressure Visibility Wind Dir Wind Speed Gust Speed Precip Events Conditions
12:53 AM 55.9 °F 26.1 °F 32% 30.09 in - South 5.8 mph - N/A   Unknown
1:53 AM 54.0 °F 26.1 °F 34% 30.09 in - SW 9.2 mph - N/A   Unknown
2:53 AM 48.9 °F 26.1 °F 41% 30.11 in - South 6.9 mph - N/A   Unknown
3:53 AM 52.0 °F 26.1 °F 37% 30.10 in - South 6.9 mph - N/A   Unknown
4:53 AM 48.9 °F 27.0 °F 43% 30.11 in - South 10.4 mph - N/A   Unknown
5:53 AM 46.9 °F 26.1 °F 44% 30.14 in - SSW 10.4 mph - N/A   Unknown
6:53 AM 50.0 °F 26.1 °F 39% 30.16 in - SSW 11.5 mph - N/A   Unknown
7:53 AM 57.9 °F 26.1 °F 30% 30.14 in - SW 6.9 mph - N/A   Unknown
8:53 AM 66.0 °F 27.0 °F 23% 30.14 in - Calm Calm - N/A   Unknown
9:53 AM 73.0 °F 28.0 °F 19% 30.13 in - Variable 3.5 mph - N/A   Unknown
10:53 AM 77.0 °F 24.1 °F 14% 30.14 in - WNW 6.9 mph - N/A   Unknown
11:53 AM 80.1 °F 24.1 °F 13% 30.10 in - West 8.1 mph - N/A   Unknown
12:53 PM 82.0 °F 25.0 °F 12% 30.09 in - WNW 8.1 mph - N/A   Unknown
1:53 PM 84.0 °F 25.0 °F 12% 30.06 in - West 15.0 mph 20.7 mph N/A   Unknown
2:53 PM 84.0 °F 24.1 °F 11% 30.05 in - West 10.4 mph - N/A   Unknown
3:53 PM 84.0 °F 24.1 °F 11% 30.01 in - NNW 12.7 mph 18.4 mph N/A   Unknown
4:53 PM 82.0 °F 21.9 °F 11% 30.01 in - Variable 3.5 mph - N/A   Unknown
5:53 PM 82.0 °F 21.0 °F 10% 30.00 in - Calm Calm - N/A   Unknown
6:53 PM 73.0 °F 23.0 °F 15% 30.02 in - Calm Calm - N/A   Unknown
7:53 PM 66.9 °F 23.0 °F 19% 30.04 in - South 9.2 mph - N/A   Unknown
8:53 PM 66.9 °F 25.0 °F 21% 30.04 in - Calm Calm - N/A   Unknown
9:53 PM 60.1 °F 30.0 °F 32% 30.05 in - South 5.8 mph - N/A   Unknown
10:53 PM 55.9 °F 27.0 °F 33% 30.05 in - SE 5.8 mph - N/A   Unknown
11:53 PM 54.0 °F 28.0 °F 37% 30.05 in - SSW 8.1 mph - N/A   Unknown